Location: Guferjoch
(46.7462°N, 8.4506°E)
Time: 23:34:48
(UTC+00:00)

Meteor 1-18 Rocket - Pass Details

Date: 14 July 2020
Orbit: 836 x 909 km, 81.2° (Epoch: 14 August)

Event Time Altitude Azimuth Distance (km) Brightness Sun altitude
Rises 01:02:05 0° 345° (NNW) 3,518 8.3 -18.7°
Reaches altitude 10° 01:04:37 10° 341° (NNW) 2,564 7.4 -18.5°
Maximum altitude 01:10:17 55° 265° (W) 1,050 4.5 -18.1°
Enters shadow 01:12:52 31° 203° (SSW) 1,495 4.9 -17.9°
